TimeCDT,TemperatureF,Dew PointF,Humidity,Sea Level PressureIn,VisibilityMPH,Wind Direction,Wind SpeedMPH,Gust SpeedMPH,PrecipitationIn,Events,Conditions,WindDirDegrees,DateUTC
12:50 AM,75.2,66.2,73,29.79,10.0,NE,5.8,-,N/A,,Mostly Cloudy,40,2013-09-23 05:50:00
1:50 AM,75.2,62.6,65,29.79,10.0,NNE,3.5,-,N/A,,Mostly Cloudy,30,2013-09-23 06:50:00
2:50 AM,73.4,60.8,65,29.78,10.0,NE,9.2,-,N/A,,Mostly Cloudy,40,2013-09-23 07:50:00
3:50 AM,71.6,60.8,69,29.77,10.0,NE,3.5,-,N/A,,Mostly Cloudy,40,2013-09-23 08:50:00
4:50 AM,71.6,60.8,69,29.77,10.0,NNE,5.8,-,N/A,,Mostly Cloudy,30,2013-09-23 09:50:00
5:50 AM,71.6,60.8,69,29.79,10.0,NE,5.8,-,N/A,,Scattered Clouds,50,2013-09-23 10:50:00
6:50 AM,69.8,60.8,73,29.79,10.0,NE,5.8,-,N/A,,Mostly Cloudy,40,2013-09-23 11:50:00
7:50 AM,69.8,60.8,73,29.80,10.0,NE,6.9,-,N/A,,Mostly Cloudy,40,2013-09-23 12:50:00
9:50 AM,73.4,62.6,69,29.82,10.0,NE,8.1,-,N/A,,Mostly Cloudy,40,2013-09-23 14:50:00
10:50 AM,75.2,62.6,65,29.83,10.0,NNE,8.1,-,N/A,,Mostly Cloudy,30,2013-09-23 15:50:00
11:50 AM,80.6,64.4,58,29.83,10.0,NE,4.6,-,N/A,,Mostly Cloudy,40,2013-09-23 16:50:00
12:50 PM,82.4,64.4,54,29.80,10.0,ENE,8.1,-,N/A,,Mostly Cloudy,70,2013-09-23 17:50:00
1:50 PM,86.0,64.4,48,29.78,10.0,ENE,6.9,-,N/A,,Mostly Cloudy,60,2013-09-23 18:50:00
2:50 PM,86.0,64.4,48,29.76,10.0,NE,6.9,-,N/A,,Scattered Clouds,40,2013-09-23 19:50:00
3:50 PM,93.2,66.2,41,29.75,10.0,ENE,5.8,-,N/A,,Scattered Clouds,60,2013-09-23 20:50:00
4:50 PM,89.6,59.0,36,29.74,10.0,ENE,8.1,-,N/A,,Scattered Clouds,70,2013-09-23 21:50:00
5:50 PM,89.6,62.6,40,29.75,10.0,ENE,9.2,-,N/A,,Scattered Clouds,60,2013-09-23 22:50:00
6:50 PM,87.8,60.8,40,29.75,10.0,East,3.5,-,N/A,,Scattered Clouds,90,2013-09-23 23:50:00
7:50 PM,82.4,66.2,58,29.76,10.0,ENE,2.3,-,N/A,,Scattered Clouds,60,2013-09-24 00:50:00
8:50 PM,82.4,68.0,62,29.78,10.0,NE,3.5,-,N/A,,Scattered Clouds,50,2013-09-24 01:50:00
9:50 PM,82.4,73.4,74,29.79,10.0,ENE,5.8,-,N/A,,Scattered Clouds,60,2013-09-24 02:50:00
10:50 PM,80.6,75.2,84,29.80,10.0,NE,3.5,-,N/A,,Scattered Clouds,40,2013-09-24 03:50:00
11:50 PM,80.6,75.2,84,29.81,10.0,NNE,3.5,-,N/A,,Partly Cloudy,20,2013-09-24 04:50:00